This is the latest recevied weather packets stored in our database for station/object KF5JED-13. If no packets are shown the sender has not sent any weather packets the latest 10 day(s).
| Time | Temp. | Humidity | Pressure | Rain* | Wind** | Luminosity | Snow |
|---|---|---|---|---|---|---|---|
| 1777670105 | 10.56° C | 75% | 1019.9 hPa | 0 mm | - | 216 W/m² | - |
| 1777669803 | 11.11° C | 74% | 1019.9 hPa | 0 mm | - | 203 W/m² | - |
| 1777669499 | 11.67° C | 70% | 1019.9 hPa | 0 mm | - | 212 W/m² | - |
| 1777669196 | 11.67° C | 66% | 1020 hPa | 0 mm | - | 240 W/m² | - |
| 1777668892 | 11.67° C | 66% | 1020.2 hPa | 0 mm | - | 243 W/m² | - |
| 1777668590 | 11.67° C | 65% | 1020.1 hPa | 0 mm | - | 251 W/m² | - |
| 1777668285 | 12.22° C | 63% | 1020.1 hPa | 0 mm | - | 237 W/m² | - |
| 1777667982 | 11.67° C | 64% | 1020.2 hPa | 0 mm | - | 266 W/m² | - |
| 1777667679 | 12.22° C | 65% | 1020.2 hPa | 0 mm | - | 321 W/m² | - |
| 1777667377 | 11.67° C | 65% | 1020.1 hPa | 0 mm | - | 322 W/m² | - |
| 1777667073 | 12.22° C | 67% | 1020.4 hPa | 0 mm | - | 314 W/m² | - |
| 1777666770 | 12.22° C | 64% | 1020.5 hPa | 0 mm | - | 318 W/m² | - |
| 1777666467 | 11.67° C | 65% | 1020.5 hPa | 0 mm | - | 344 W/m² | - |
| 1777666164 | 11.67° C | 62% | 1020.2 hPa | 0 mm | - | 305 W/m² | - |
| 1777665861 | 12.22° C | 62% | 1020.4 hPa | 0 mm | - | 248 W/m² | - |
| 1777665558 | 11.67° C | 63% | 1020.5 hPa | 0 mm | - | 246 W/m² | - |
| 1777665255 | 11.67° C | 63% | 1020.2 hPa | 0 mm | - | 173 W/m² | - |
| 1777664950 | 11.67° C | 64% | 1020.2 hPa | 0 mm | - | 166 W/m² | - |
| 1777664647 | 11.67° C | 65% | 1020.1 hPa | 0 mm | - | 215 W/m² | - |
| 1777664342 | 11.67° C | 65% | 1020.5 hPa | 0 mm | - | 224 W/m² | - |
| 1777664041 | 11.67° C | 66% | 1020.4 hPa | 0 mm | - | 206 W/m² | - |
| 1777663739 | 11.11° C | 66% | 1020.2 hPa | 0 mm | - | 174 W/m² | - |
| 1777663435 | 11.67° C | 67% | 1020.2 hPa | 0 mm | - | 188 W/m² | - |
| 1777663132 | 11.67° C | 65% | 1020.2 hPa | 0 mm | - | 179 W/m² | - |
| 1777662830 | 11.67° C | 66% | 1020.2 hPa | 0 mm | - | 213 W/m² | - |
* Rain latest hour (hover to see other rain measurements)
** Current wind speed in m/s (hover to see current wind gust speed)